Home   Weather   Minsk   Past weeks
Flag for Belarus

Past Weather in Minsk, Belarus — Yesterday and Last 2 Weeks

Now
28 °F

Passing clouds.


Feels Like: 22 °F
Forecast: 36 / 25 °F
Wind: 6 mph from West

Location: Minsk

Current Time: Feb 23, 2019 at 2:38:30 pm

Latest Report: Feb 23, 2019 at 2:00 pm


Visibility: N/A

Pressure: 30.72 "Hg

Humidity: 40%

Dew Point: 7 °F

Location of MinskLocation

Past Weather in Minsk — Graph

°F

Minsk Temperature Yesterday

Maximum temperature yesterday: 25 °F (at 1:30 pm)
Minimum temperature yesterday: 14 °F (at 8:30 am)
Average temperature yesterday: 21 °F

High & Low Weather Summary for the Past Weeks

 TemperatureHumidityPressure
High43 °F (Feb 19, 3:30 pm)100% (Feb 9, 3:30 am)30.74 "Hg (Feb 9, 3:30 am)
Low14 °F (Feb 22, 8:30 am)38% (Feb 18, 3:30 pm)29.53 "Hg (Feb 11, 1:37 pm)
Average31 °F84%30.02 "Hg
* Reported Feb 8 1:00 pm — Feb 23 1:30 pm, Minsk. Weather by CustomWeather, © 2019

Note: Actual official high and low records may vary slightly from our data, if they occured in-between our weather recording intervals... More about our weather records

Advertising

Minsk Weather History for the Previous 24 Hours

Scroll right to see more
 ConditionsComfort  
Time TempWeatherWind HumidityBarometerVisibility
1:30 pm
Sat, Feb 23
28 °FPassing clouds.3 mph43%30.72 "HgN/A
1:00 pm28 °FSunny.3 mph51%30.72 "Hg10 mi
12:30 pm27 °FSunny.6 mph50%30.72 "Hg10 mi
12:00 pm25 °FSunny.6 mph54%30.72 "Hg10 mi
11:30 am23 °FPartly sunny.8 mph63%30.74 "HgN/A
11:00 am21 °FPartly sunny.8 mph68%30.74 "HgN/A
10:30 am19 °FSunny.6 mph73%30.72 "Hg10 mi
10:00 am18 °FSunny.8 mph79%30.72 "Hg10 mi
9:30 am16 °FSunny.8 mph79%30.72 "Hg10 mi
9:00 am14 °FClear.8 mph79%30.72 "Hg10 mi
8:30 am16 °FClear.10 mph79%30.72 "Hg10 mi
8:00 am14 °FClear.8 mph85%30.72 "Hg10 mi
7:30 am14 °FClear.8 mph85%30.72 "Hg10 mi
7:00 am16 °FClear.8 mph79%30.72 "Hg10 mi
6:30 am16 °FClear.10 mph79%30.72 "Hg10 mi
6:00 am16 °FClear.10 mph79%30.69 "Hg10 mi
5:30 am16 °FClear.10 mph79%30.69 "Hg10 mi
5:00 am18 °FClear.13 mph73%30.69 "Hg10 mi
4:30 am18 °FClear.13 mph73%30.69 "Hg10 mi
4:00 am18 °FClear.10 mph73%30.69 "Hg10 mi
3:30 am18 °FClear.13 mph73%30.66 "Hg10 mi
3:00 am18 °FClear.8 mph73%30.66 "Hg10 mi
2:30 am18 °FClear.8 mph73%30.66 "Hg10 mi
2:00 am19 °FClear.10 mph68%30.66 "Hg10 mi
1:30 am19 °FClear.10 mph68%30.63 "Hg10 mi
1:00 am19 °FClear.10 mph68%30.63 "Hg10 mi
12:30 am19 °FClear.10 mph68%30.60 "Hg10 mi
12:00 am21 °FClear.10 mph63%30.60 "Hg10 mi
11:30 pm
Fri, Feb 22
21 °FClear.13 mph63%30.57 "Hg10 mi
11:00 pm21 °FClear.13 mph58%30.57 "Hg10 mi
10:30 pm21 °FClear.15 mph58%30.57 "Hg10 mi
10:00 pm21 °FClear.13 mph58%30.54 "Hg10 mi
9:30 pm21 °FClear.15 mph58%30.54 "Hg10 mi
9:00 pm23 °FClear.17 mph54%30.51 "Hg10 mi
8:30 pm23 °FClear.15 mph54%30.51 "Hg10 mi
8:00 pm23 °FClear.17 mph54%30.48 "Hg10 mi
7:30 pm23 °FSunny.17 mph54%30.48 "Hg10 mi
7:00 pm23 °FSunny.17 mph54%30.45 "Hg10 mi
6:30 pm25 °FSunny.20 mph46%30.42 "Hg10 mi
6:13 pm25 °FClear.17 mph46%30.39 "HgN/A
6:02 pm25 °FClear.22 mph46%30.39 "HgN/A
5:30 pm25 °FSunny.24 mph46%30.39 "Hg10 mi
5:11 pm25 °FClear.24 mph46%30.36 "HgN/A
4:45 pm25 °FClear.22 mph50%30.36 "HgN/A
4:30 pm25 °FSunny.24 mph50%30.36 "Hg10 mi
4:03 pm25 °FClear.24 mph50%30.36 "HgN/A
3:36 pm25 °FClear.22 mph46%30.36 "HgN/A
3:00 pm25 °FSunny.26 mph46%30.33 "Hg10 mi
2:30 pm25 °FSunny.24 mph50%30.33 "Hg10 mi
2:03 pm25 °FClear.29 mph46%30.33 "HgN/A
Weather by CustomWeather, © 2019

See weather overview